Mitilini current weather conditions

sailwx.info

Air temperature 24.0° C
Dewpoint 19.0° C

Last reported at 2014-Jul-28 04:20 UTC.
Time now 2014-Jul-28 06:17 UTC

Location: N 39°03' E 026°36'.
View on Google Maps.

See reports from other nearby stations

  
Tides and Currents Weather Stations Pressure Air Temp Water Temp Dewpoint Dewpoint Depression Visibility Wind Speed Wind Dir Waves Ship Positions
date/time (UTC)wind fromknots sea level pressurealtimeterstation pressurevisibilityair tempwater tempwave heightnotes
2014-Jul-28 05:20 25.0
2014-Jul-28 04:50 25.0
2014-Jul-28 04:20 24.0
2014-Jul-28 03:50 24.0
2014-Jul-28 03:20 24.0
2014-Jul-28 02:50 24.0
2014-Jul-28 02:20 25.0
2014-Jul-28 01:50 25.0
2014-Jul-28 01:20 25.0
2014-Jul-27 20:50 27.0
2014-Jul-27 20:20 27.0
2014-Jul-27 19:50 27.0
2014-Jul-27 19:20 28.0
2014-Jul-27 18:50 28.0
2014-Jul-27 18:20 30.0
2014-Jul-27 17:50 30.0
2014-Jul-27 17:20 30.0
2014-Jul-27 16:50 31.0
2014-Jul-27 16:20 32.0
2014-Jul-27 15:50 32.0
2014-Jul-27 15:20 31.0
2014-Jul-27 14:50 100 4 31.0
2014-Jul-27 14:20 33.0
2014-Jul-27 13:50 330 7 33.0
2014-Jul-27 13:20 320 7 31.0
2014-Jul-27 12:50 340 6 31.0
2014-Jul-27 12:20 350 8 32.0
2014-Jul-27 11:50 340 10 32.0
2014-Jul-27 11:20 330 9 32.0
2014-Jul-27 10:50 330 9 32.0
2014-Jul-27 10:20 320 9 31.0
2014-Jul-27 09:50 320 10 31.0
2014-Jul-27 09:20 340 10 30.0
2014-Jul-27 08:50 350 10 30.0
2014-Jul-27 08:20 340 10 29.0
2014-Jul-27 07:50 340 10 29.0
2014-Jul-27 07:20 330 11 29.0
2014-Jul-27 06:50 330 10 28.0
2014-Jul-27 06:20 330 10 28.0
2014-Jul-27 05:50 330 10 27.0
2014-Jul-27 05:20 320 9 26.0
2014-Jul-27 04:50 320 7 26.0
2014-Jul-27 04:20 300 4 25.0
2014-Jul-27 03:50 300 4 25.0
2014-Jul-27 03:20 300 5 25.0
2014-Jul-27 02:50 290 5 25.0
2014-Jul-27 02:20 280 4 26.0
2014-Jul-27 01:50 280 4 26.0
2014-Jul-27 01:20 280 4 26.0
2014-Jul-26 19:50 320 6 28.0
2014-Jul-26 19:20 28.0
2014-Jul-26 18:50 28.0
2014-Jul-26 18:20 300 6 28.0
2014-Jul-26 17:50 300 5 29.0
2014-Jul-26 17:20 300 6 30.0
2014-Jul-26 16:50 330 8 31.0
2014-Jul-26 16:20 330 10 32.0
2014-Jul-26 15:50 320 11 33.0
2014-Jul-26 15:20 320 13 33.0
2014-Jul-26 14:50 320 11 33.0
2014-Jul-26 14:20 320 11 gusting 20 33.0
2014-Jul-26 13:50 320 13 33.0
2014-Jul-26 13:20 320 11 gusting 20 33.0
2014-Jul-26 12:50 320 12 gusting 22 32.0
2014-Jul-26 12:20 320 12 gusting 22 32.0
2014-Jul-26 11:50 320 12 gusting 22 32.0
2014-Jul-26 11:20 320 12 gusting 22 32.0
2014-Jul-26 10:50 320 12 32.0
2014-Jul-26 10:20 320 12 31.0
2014-Jul-26 09:50 330 12 30.0
2014-Jul-26 09:20 330 12 30.0
2014-Jul-26 08:50 330 12 29.0
2014-Jul-26 08:20 330 10 29.0
2014-Jul-26 07:50 330 10 28.0
2014-Jul-26 07:20 330 12 28.0
2014-Jul-26 06:50 340 12 28.0
2014-Jul-26 06:20 340 12 27.0